Weather History for Defiance, OH

Change the Weather History Date:

Wednesday, June 20, 2012

  Actual Average Record
Temperature  
Mean Temperature 82 °F -  
Max Temperature 96 °F 81 °F 96 °F (1953)
Min Temperature 70 °F 58 °F 40 °F (1970)
Cooling Degree Days 18    
Growing Degree Days 32 (Base 50)    
Moisture  
Dew Point 59 °F    
Average Humidity 45    
Maximum Humidity 78    
Minimum Humidity 26    
Precipitation  
Precipitation 0.00 in - - ()
Sea Level Pressure  
Sea Level Pressure 30.04 in    
Wind  
Wind Speed 7 mph (SSW)    
Max Wind Speed 17 mph    
Max Gust Speed 25 mph    
Visibility 10 miles    
Events      
Averages and records for this station are not official NWS values.
T = Trace of Precipitation, MM = Missing Value Source: NWS Daily Summary

Daily Weather History Graph

Daily Weather History Graph

Search for Another Location

Airport:

Trip Planner

Search our weather history database for the weather conditions in past years. The results will help you decide how hot, cold, wet, or windy it might be!

Date:

Astronomy

Jun. 20, 2012 Rise Set
Actual Time 6:04 AM EDT 9:14 PM EDT
Civil Twilight 5:30 AM EDT 9:48 PM EDT
Nautical Twilight 4:47 AM EDT 10:31 PM EDT
Astronomical Twilight 3:55 AM EDT 11:23 PM EDT
Moon 7:04 AM EDT 9:58 PM EDT
Length of Visible Light 16h 17m
Length of Day
15h 09m
New Moon, 1% of the Moon is Illuminated
Jun 20
New Moon
Jun 26
First Quarter
Jul 3
Full
Jul 10
Last Quarter
Jul 19
New

Hourly Weather History & Observations

Time (EDT) Temp. Heat Index Dew Point Humidity Pressure Visibility Wind Dir Wind Speed Gust Speed Precip Events Conditions
12:53 AM 80.1 °F 80.9 °F 60.1 °F 50% 30.05 in 10.0 mi SSW 8.1 mph - N/A   Clear
1:53 AM 79.0 °F - 61.0 °F 54% 30.04 in 10.0 mi SSW 6.9 mph - N/A   Clear
2:53 AM 77.0 °F - 61.0 °F 58% 30.05 in 10.0 mi SSW 6.9 mph - N/A   Clear
3:53 AM 75.9 °F - 61.0 °F 60% 30.05 in 10.0 mi SW 3.5 mph - N/A   Clear
4:53 AM 73.0 °F - 61.0 °F 66% 30.06 in 10.0 mi Calm Calm - N/A   Clear
5:53 AM 70.0 °F - 62.1 °F 76% 30.08 in 10.0 mi Calm Calm - N/A   Clear
6:53 AM 70.0 °F - 63.0 °F 78% 30.10 in 10.0 mi Calm Calm - N/A   Clear
7:53 AM 75.9 °F - 64.0 °F 67% 30.11 in 10.0 mi SSW 4.6 mph - N/A   Clear
8:53 AM 82.0 °F 83.1 °F 63.0 °F 52% 30.12 in 10.0 mi SW 8.1 mph - N/A   Clear
9:53 AM 86.0 °F 86.3 °F 62.1 °F 44% 30.12 in 10.0 mi SW 8.1 mph - N/A   Clear
10:53 AM 89.1 °F 89.0 °F 61.0 °F 39% 30.11 in 10.0 mi SW 9.2 mph - N/A   Clear
11:53 AM 90.0 °F 88.6 °F 57.0 °F 33% 30.10 in 10.0 mi WSW 10.4 mph 23.0 mph N/A   Clear
1:53 PM 91.9 °F 90.3 °F 55.9 °F 30% 30.07 in 10.0 mi SW 9.2 mph 25.3 mph N/A   Clear
2:53 PM 93.9 °F 92.0 °F 55.0 °F 27% 30.05 in 10.0 mi SSW 10.4 mph 24.2 mph N/A   Clear
3:53 PM 95.0 °F 93.0 °F 55.0 °F 26% 30.02 in 10.0 mi SSW 15.0 mph 19.6 mph N/A   Clear
4:53 PM 95.0 °F 93.0 °F 55.0 °F 26% 30.01 in 10.0 mi SW 17.3 mph 23.0 mph N/A   Clear
5:53 PM 95.0 °F 93.0 °F 55.0 °F 26% 29.99 in 10.0 mi SSW 13.8 mph 21.9 mph N/A   Clear
6:53 PM 93.9 °F 92.0 °F 55.0 °F 27% 29.98 in 10.0 mi SSW 13.8 mph 19.6 mph N/A   Clear
7:53 PM 91.9 °F 90.3 °F 55.9 °F 30% 29.97 in 10.0 mi SSW 12.7 mph 23.0 mph N/A   Clear
8:53 PM 89.1 °F 87.1 °F 55.0 °F 31% 29.96 in 10.0 mi SSW 8.1 mph - N/A   Clear
9:53 PM 82.0 °F 81.6 °F 55.9 °F 41% 29.96 in 10.0 mi SSW 5.8 mph - N/A   Clear
10:53 PM 82.9 °F 82.8 °F 59.0 °F 44% 29.95 in 10.0 mi SSW 9.2 mph - N/A   Clear
11:53 PM 82.9 °F 82.8 °F 59.0 °F 44% 29.96 in 10.0 mi SSW 8.1 mph - N/A   Clear